FDX508 KLAX-KMEM

Flight info

Callsign FDX508
Flight time 3h 3m
Altitude 35000
Route DOTSS2 CLEE DCT PKE DCT HIDAT DCT KA27O DCT NABOB KA27Q KA27S DCT IMMAS KA30Y KF30A DCT IRW DCT LITTR HOBRK4
Aircraft B77L/H-ICAO/L

Departure

Time 2026-05-07 12:09
Airport Los Angeles International Airport (KLAX)

Arrival

Time 2026-05-07 15:12
Airport Memphis International Airport (KMEM)
Time Latitude Longitude Altitude Speed Heading
2026-05-07 11:47 33.93397 -118.38608 140 ft 0 kts 269°
2026-05-07 12:00 33.93397 -118.38606 140 ft 1 kts 269°
2026-05-07 12:00 33.93398 -118.38588 140 ft 3 kts 270°
2026-05-07 12:01 33.93395 -118.38565 140 ft 3 kts 291°
2026-05-07 12:01 33.93384 -118.38544 140 ft 3 kts 313°
2026-05-07 12:01 33.93368 -118.38529 140 ft 3 kts 334°
2026-05-07 12:01 33.93348 -118.38522 140 ft 3 kts 353°
2026-05-07 12:02 33.93341 -118.38521 140 ft 0 kts 358°
2026-05-07 12:05 33.93380 -118.38521 140 ft 8 kts
2026-05-07 12:05 33.93460 -118.38518 140 ft 14 kts
2026-05-07 12:05 33.93542 -118.38515 140 ft 10 kts
2026-05-07 12:05 33.93598 -118.38461 140 ft 13 kts 77°
2026-05-07 12:06 33.93608 -118.38365 140 ft 9 kts 83°
2026-05-07 12:06 33.93635 -118.38293 140 ft 11 kts 28°
2026-05-07 12:06 33.93721 -118.38303 140 ft 15 kts 351°
2026-05-07 12:06 33.93818 -118.38315 140 ft 11 kts 356°
2026-05-07 12:07 33.93867 -118.38318 140 ft 0 kts 357°
2026-05-07 12:07 33.93871 -118.38318 140 ft 2 kts 357°
2026-05-07 12:07 33.93908 -118.38320 140 ft 8 kts 357°
2026-05-07 12:08 33.93947 -118.38336 140 ft 6 kts 313°
2026-05-07 12:08 33.93954 -118.38384 140 ft 6 kts 262°
2026-05-07 12:08 33.93954 -118.38385 140 ft 1 kts 262°
2026-05-07 12:08 33.93941 -118.38514 140 ft 47 kts 263°
2026-05-07 12:09 33.93865 -118.39265 140 ft 132 kts 263°
2026-05-07 12:09 33.93717 -118.40669 205 ft 199 kts 263°
2026-05-07 12:09 33.93538 -118.42395 965 ft 209 kts 263°
2026-05-07 12:09 33.93359 -118.44154 1763 ft 219 kts 262°
2026-05-07 12:10 33.92970 -118.45976 2329 ft 232 kts 249°
2026-05-07 12:10 33.92183 -118.47698 3015 ft 240 kts 236°
2026-05-07 12:10 33.91111 -118.49289 3683 ft 251 kts 228°
2026-05-07 12:10 33.89884 -118.50901 4187 ft 269 kts 228°
2026-05-07 12:11 33.88610 -118.52613 4908 ft 279 kts 229°
2026-05-07 12:11 33.87307 -118.54298 5860 ft 279 kts 223°
2026-05-07 12:11 33.85604 -118.55517 6652 ft 286 kts 198°
2026-05-07 12:11 33.83649 -118.55804 7445 ft 291 kts 178°
2026-05-07 12:12 33.82814 -118.55717 7778 ft 293 kts 173°
2026-05-07 12:12 33.82012 -118.55558 8108 ft 293 kts 168°
2026-05-07 12:12 33.80020 -118.54981 8935 ft 296 kts 164°
2026-05-07 12:12 33.78023 -118.54359 9807 ft 297 kts 163°
2026-05-07 12:13 33.76005 -118.53775 10609 ft 301 kts 164°
2026-05-07 12:13 33.73908 -118.53204 11080 ft 318 kts 165°
2026-05-07 12:13 33.71736 -118.52437 11457 ft 331 kts 154°
2026-05-07 12:13 33.69786 -118.50888 11795 ft 344 kts 133°
2026-05-07 12:14 33.68337 -118.48547 12146 ft 357 kts 116°
2026-05-07 12:14 33.67448 -118.45726 12663 ft 366 kts 103°
2026-05-07 12:14 33.66910 -118.42703 13221 ft 375 kts 101°
2026-05-07 12:14 33.66188 -118.39659 13865 ft 384 kts 107°
2026-05-07 12:15 33.65339 -118.36598 14546 ft 387 kts 103°
2026-05-07 12:15 33.64799 -118.33459 15254 ft 390 kts 96°
2026-05-07 12:15 33.64539 -118.30192 15941 ft 395 kts 91°
2026-05-07 12:15 33.64416 -118.26875 16641 ft 398 kts 89°
2026-05-07 12:16 33.64393 -118.23526 17297 ft 403 kts 87°
2026-05-07 12:16 33.64416 -118.20140 17956 ft 407 kts 87°
2026-05-07 12:16 33.64443 -118.16766 18567 ft 412 kts 86°
2026-05-07 12:16 33.64480 -118.13270 19185 ft 416 kts 87°
2026-05-07 12:17 33.64493 -118.09826 19799 ft 420 kts 87°
2026-05-07 12:17 33.64492 -118.06299 20403 ft 425 kts 87°
2026-05-07 12:17 33.64484 -118.02736 20994 ft 428 kts 87°
2026-05-07 12:17 33.64474 -117.99146 21582 ft 432 kts 87°
2026-05-07 12:18 33.64463 -117.95520 22138 ft 436 kts 87°
2026-05-07 12:18 33.64451 -117.91865 22679 ft 440 kts 87°
2026-05-07 12:18 33.64439 -117.88178 23215 ft 444 kts 87°
2026-05-07 12:18 33.64428 -117.84459 23753 ft 447 kts 86°
2026-05-07 12:19 33.64576 -117.80722 24269 ft 448 kts 81°
2026-05-07 12:19 33.65008 -117.77009 24750 ft 451 kts 77°
2026-05-07 12:19 33.65585 -117.73340 25316 ft 453 kts 75°
2026-05-07 12:19 33.66263 -117.69646 25868 ft 455 kts 74°
2026-05-07 12:20 33.66993 -117.65934 26377 ft 458 kts 74°
2026-05-07 12:20 33.67724 -117.62191 26879 ft 462 kts 74°
2026-05-07 12:20 33.68468 -117.58431 27387 ft 464 kts 73°
2026-05-07 12:20 33.69222 -117.54642 27849 ft 468 kts 74°
2026-05-07 12:21 33.69959 -117.50822 28392 ft 470 kts 74°
2026-05-07 12:21 33.70689 -117.46980 28832 ft 474 kts 75°
2026-05-07 12:21 33.71422 -117.43101 29259 ft 477 kts 75°
2026-05-07 12:21 33.72157 -117.39202 29702 ft 480 kts 75°
2026-05-07 12:22 33.72894 -117.35280 30134 ft 483 kts 74°
2026-05-07 12:22 33.73635 -117.31355 30810 ft 478 kts 74°
2026-05-07 12:22 33.74342 -117.27505 31329 ft 478 kts 76°
2026-05-07 12:22 33.74918 -117.23558 31856 ft 479 kts 79°
2026-05-07 12:23 33.75216 -117.19571 32374 ft 479 kts 84°
2026-05-07 12:23 33.75225 -117.15547 32771 ft 482 kts 89°
2026-05-07 12:23 33.75045 -117.11516 33160 ft 484 kts 90°
2026-05-07 12:23 33.74826 -117.07485 33590 ft 483 kts 90°
2026-05-07 12:24 33.74701 -117.03446 33977 ft 482 kts 88°
2026-05-07 12:24 33.74571 -116.95403 34046 ft 480 kts 88°
2026-05-07 12:25 33.74383 -116.87430 34026 ft 480 kts 88°
2026-05-07 12:25 33.74186 -116.79404 34024 ft 480 kts 88°
2026-05-07 12:26 33.73986 -116.71386 34018 ft 480 kts 88°
2026-05-07 12:26 33.73783 -116.63374 33993 ft 480 kts 88°
2026-05-07 12:27 33.73578 -116.55340 33994 ft 480 kts 88°
2026-05-07 12:27 33.73412 -116.47317 34029 ft 479 kts 88°
2026-05-07 12:27 33.73331 -116.43302 34168 ft 483 kts 88°
2026-05-07 12:28 33.73245 -116.39267 34552 ft 482 kts 88°
2026-05-07 12:28 33.73142 -116.35247 34916 ft 482 kts 88°
2026-05-07 12:28 33.73030 -116.31220 34990 ft 481 kts 88°
2026-05-07 12:29 33.72800 -116.23207 34978 ft 479 kts 88°
2026-05-07 12:29 33.72569 -116.15269 34969 ft 478 kts 88°
2026-05-07 12:30 33.72646 -116.07352 34992 ft 471 kts 79°
2026-05-07 12:30 33.74185 -115.99763 34992 ft 466 kts 68°
2026-05-07 12:31 33.76344 -115.92419 35022 ft 466 kts 67°
2026-05-07 12:31 33.78471 -115.85034 35064 ft 468 kts 68°
2026-05-07 12:32 33.80524 -115.77641 35070 ft 470 kts 68°
2026-05-07 12:32 33.82572 -115.70187 35058 ft 469 kts 68°
2026-05-07 12:33 33.85677 -115.59038 35073 ft 467 kts 68°
2026-05-07 12:33 33.87380 -115.52863 35063 ft 467 kts 68°
2026-05-07 12:34 33.89418 -115.45423 35051 ft 467 kts 69°
2026-05-07 12:34 33.91448 -115.37977 35067 ft 468 kts 69°
2026-05-07 12:35 33.93472 -115.30532 35076 ft 467 kts 69°
2026-05-07 12:35 33.95481 -115.23121 35061 ft 467 kts 69°
2026-05-07 12:36 33.97492 -115.15680 35058 ft 467 kts 69°
2026-05-07 12:36 33.99495 -115.08250 35057 ft 465 kts 69°
2026-05-07 12:37 34.01510 -115.00845 35041 ft 463 kts 69°
2026-05-07 12:37 34.03502 -114.93444 35032 ft 465 kts 69°
2026-05-07 12:38 34.05485 -114.85988 35027 ft 466 kts 69°
2026-05-07 12:38 34.07446 -114.78590 35010 ft 466 kts 69°
2026-05-07 12:39 34.09421 -114.71141 35007 ft 466 kts 69°
2026-05-07 12:39 34.11424 -114.63723 35008 ft 463 kts 68°
2026-05-07 12:40 34.13496 -114.56370 35004 ft 463 kts 68°
2026-05-07 12:40 34.15555 -114.48993 35002 ft 463 kts 68°
2026-05-07 12:41 34.17602 -114.41614 35002 ft 463 kts 68°
2026-05-07 12:41 34.19644 -114.34228 35001 ft 463 kts 68°
2026-05-07 12:42 34.21675 -114.26895 35001 ft 463 kts 68°
2026-05-07 12:42 34.23756 -114.19518 35000 ft 462 kts 68°
2026-05-07 12:43 34.25797 -114.12180 35003 ft 460 kts 69°
2026-05-07 12:43 34.27825 -114.04831 35006 ft 463 kts 69°
2026-05-07 12:44 34.29868 -113.97397 35012 ft 467 kts 69°
2026-05-07 12:44 34.31895 -113.89999 35013 ft 466 kts 69°
2026-05-07 12:45 34.33930 -113.82551 35025 ft 465 kts 69°
2026-05-07 12:45 34.35961 -113.75097 35027 ft 466 kts 69°
2026-05-07 12:46 34.37985 -113.67648 35033 ft 465 kts 69°
2026-05-07 12:46 34.40001 -113.60211 35040 ft 464 kts 69°
2026-05-07 12:47 34.41995 -113.52831 35043 ft 464 kts 69°
2026-05-07 12:47 34.44000 -113.45392 35044 ft 464 kts 69°
2026-05-07 12:48 34.46000 -113.37951 35050 ft 464 kts 69°
2026-05-07 12:48 34.48018 -113.30518 35051 ft 464 kts 69°
2026-05-07 12:49 34.50013 -113.23077 35056 ft 464 kts 69°
2026-05-07 12:49 34.51978 -113.15663 35057 ft 464 kts 69°
2026-05-07 12:50 34.53949 -113.08207 35058 ft 464 kts 70°
2026-05-07 12:50 34.55865 -113.00728 35063 ft 465 kts 73°
2026-05-07 12:51 34.56579 -112.92896 35060 ft 473 kts 88°
2026-05-07 12:51 34.56012 -112.84921 35060 ft 474 kts 93°
2026-05-07 12:52 34.55326 -112.76984 35064 ft 469 kts 93°
2026-05-07 12:52 34.54760 -112.69174 35080 ft 470 kts 91°
2026-05-07 12:53 34.54213 -112.61227 35083 ft 473 kts 92°
2026-05-07 12:53 34.53683 -112.53287 35063 ft 471 kts 91°
2026-05-07 12:54 34.53176 -112.45362 35153 ft 470 kts 91°
2026-05-07 12:54 34.52645 -112.37442 35199 ft 471 kts 91°
2026-05-07 12:55 34.52126 -112.29547 35207 ft 472 kts 92°
2026-05-07 12:55 34.51564 -112.21625 35213 ft 471 kts 92°
2026-05-07 12:56 34.50993 -112.13718 35213 ft 471 kts 92°
2026-05-07 12:56 34.50420 -112.05808 35216 ft 471 kts 92°
2026-05-07 12:57 34.49903 -111.97898 35190 ft 469 kts 90°
2026-05-07 12:57 34.49880 -111.89996 35188 ft 468 kts 86°
2026-05-07 12:58 34.50037 -111.82101 35194 ft 469 kts 86°
2026-05-07 12:58 34.50121 -111.74205 35184 ft 468 kts 87°
2026-05-07 12:59 34.50165 -111.66368 35183 ft 468 kts 87°
2026-05-07 12:59 34.50195 -111.58455 35188 ft 468 kts 87°
2026-05-07 13:00 34.50269 -111.50544 35203 ft 469 kts 87°
2026-05-07 13:00 34.50320 -111.42674 35206 ft 469 kts 87°
2026-05-07 13:01 34.50351 -111.34778 35204 ft 469 kts 88°
2026-05-07 13:01 34.50373 -111.26872 35217 ft 469 kts 88°
2026-05-07 13:02 34.50389 -111.18958 35219 ft 469 kts 88°
2026-05-07 13:02 34.50399 -111.11039 35220 ft 470 kts 88°
2026-05-07 13:03 34.50404 -111.03120 35229 ft 470 kts 88°
2026-05-07 13:03 34.50403 -110.95191 35234 ft 470 kts 88°
2026-05-07 13:04 34.50398 -110.87319 35236 ft 470 kts 88°
2026-05-07 13:04 34.50387 -110.79399 35242 ft 470 kts 88°
2026-05-07 13:05 34.50371 -110.71469 35243 ft 470 kts 88°
2026-05-07 13:05 34.50350 -110.63530 35243 ft 473 kts 89°
2026-05-07 13:06 34.50324 -110.55498 35262 ft 478 kts 89°
2026-05-07 13:06 34.50292 -110.47422 35262 ft 478 kts 89°
2026-05-07 13:07 34.50254 -110.39404 35253 ft 478 kts 89°
2026-05-07 13:07 34.50246 -110.31347 35276 ft 478 kts 89°
2026-05-07 13:08 34.50194 -110.23287 35276 ft 478 kts 89°
2026-05-07 13:08 34.50129 -110.15242 35275 ft 475 kts 90°
2026-05-07 13:09 34.50061 -110.07249 35282 ft 473 kts 90°
2026-05-07 13:09 34.49990 -109.99305 35279 ft 474 kts 91°
2026-05-07 13:10 34.50005 -109.91283 35279 ft 477 kts 90°
2026-05-07 13:10 34.50084 -109.83197 35278 ft 480 kts 91°
2026-05-07 13:11 34.50133 -109.75119 35275 ft 478 kts 91°
2026-05-07 13:11 34.50168 -109.67050 35274 ft 478 kts 91°
2026-05-07 13:12 34.50194 -109.59037 35266 ft 478 kts 91°
2026-05-07 13:12 34.50265 -109.50963 35265 ft 478 kts 91°
2026-05-07 13:13 34.50318 -109.42887 35263 ft 478 kts 91°
2026-05-07 13:13 34.50351 -109.34807 35261 ft 478 kts 91°
2026-05-07 13:14 34.50373 -109.26736 35260 ft 478 kts 91°
2026-05-07 13:14 34.50389 -109.18714 35263 ft 478 kts 92°
2026-05-07 13:15 34.50399 -109.10670 35264 ft 477 kts 92°
2026-05-07 13:15 34.50404 -109.02629 35265 ft 477 kts 92°
2026-05-07 13:16 34.50403 -108.94589 35269 ft 477 kts 92°
2026-05-07 13:16 34.50397 -108.86546 35271 ft 477 kts 92°
2026-05-07 13:17 34.50385 -108.78503 35273 ft 477 kts 92°
2026-05-07 13:17 34.50369 -108.70452 35284 ft 477 kts 92°
2026-05-07 13:18 34.50347 -108.62467 35289 ft 475 kts 93°
2026-05-07 13:18 34.50320 -108.54473 35294 ft 474 kts 93°
2026-05-07 13:19 34.50294 -108.47815 35303 ft 474 kts 93°
2026-05-07 13:19 34.50257 -108.39801 35306 ft 474 kts 93°
2026-05-07 13:20 34.50248 -108.31799 35310 ft 474 kts 93°
2026-05-07 13:20 34.50197 -108.23799 35312 ft 474 kts 93°
2026-05-07 13:21 34.50133 -108.15793 35314 ft 474 kts 93°
2026-05-07 13:21 34.50066 -108.07797 35320 ft 474 kts 93°
2026-05-07 13:22 34.50066 -107.99835 35287 ft 479 kts 88°
2026-05-07 13:22 34.50845 -107.91769 35315 ft 482 kts 84°
2026-05-07 13:23 34.51925 -107.83797 35321 ft 478 kts 84°
2026-05-07 13:23 34.52945 -107.75819 35311 ft 478 kts 84°
2026-05-07 13:24 34.53927 -107.67838 35310 ft 478 kts 84°
2026-05-07 13:24 34.54891 -107.59862 35309 ft 478 kts 84°
2026-05-07 13:25 34.55895 -107.51881 35293 ft 478 kts 84°
2026-05-07 13:25 34.56887 -107.43908 35295 ft 478 kts 84°
2026-05-07 13:26 34.57858 -107.35924 35294 ft 478 kts 84°
2026-05-07 13:26 34.58818 -107.27936 35267 ft 478 kts 84°
2026-05-07 13:27 34.59764 -107.20001 35269 ft 478 kts 84°
2026-05-07 13:27 34.60710 -107.12008 35269 ft 478 kts 84°
2026-05-07 13:28 34.61650 -107.04022 35260 ft 478 kts 84°
2026-05-07 13:28 34.62585 -106.96027 35263 ft 478 kts 85°
2026-05-07 13:29 34.63515 -106.88036 35272 ft 477 kts 85°
2026-05-07 13:29 34.64440 -106.80035 35264 ft 478 kts 85°
2026-05-07 13:30 34.65354 -106.72083 35266 ft 477 kts 85°
2026-05-07 13:30 34.66267 -106.64092 35266 ft 477 kts 85°
2026-05-07 13:31 34.67175 -106.56102 35246 ft 478 kts 85°
2026-05-07 13:31 34.68078 -106.48109 35258 ft 477 kts 85°
2026-05-07 13:32 34.68975 -106.40112 35260 ft 477 kts 85°
2026-05-07 13:32 34.69869 -106.32099 35186 ft 477 kts 85°
2026-05-07 13:33 34.70750 -106.24159 35172 ft 477 kts 85°
2026-05-07 13:33 34.71631 -106.16164 35163 ft 477 kts 85°
2026-05-07 13:34 34.72942 -106.04178 35007 ft 476 kts 85°
2026-05-07 13:35 34.73810 -105.96176 34994 ft 480 kts 84°
2026-05-07 13:35 34.74688 -105.88034 35010 ft 490 kts 84°
2026-05-07 13:36 34.75576 -105.79749 35002 ft 496 kts 83°
2026-05-07 13:36 34.76459 -105.71456 34994 ft 499 kts 83°
2026-05-07 13:37 34.77345 -105.63080 35010 ft 500 kts 82°
2026-05-07 13:37 34.78229 -105.54654 34995 ft 500 kts 82°
2026-05-07 13:38 34.79100 -105.46316 34993 ft 494 kts 82°
2026-05-07 13:38 34.79957 -105.38041 35017 ft 493 kts 81°
2026-05-07 13:39 34.80810 -105.29756 34998 ft 493 kts 82°
2026-05-07 13:39 34.81656 -105.21481 35004 ft 493 kts 81°
2026-05-07 13:40 34.82492 -105.13250 35028 ft 493 kts 82°
2026-05-07 13:40 34.83329 -105.04953 35026 ft 493 kts 82°
2026-05-07 13:41 34.84158 -104.96668 35045 ft 493 kts 82°
2026-05-07 13:41 34.84984 -104.88364 35052 ft 493 kts 82°
2026-05-07 13:42 34.85802 -104.80078 35055 ft 493 kts 82°
2026-05-07 13:42 34.86616 -104.71785 35068 ft 493 kts 82°
2026-05-07 13:43 34.87455 -104.63499 35074 ft 493 kts 82°
2026-05-07 13:43 34.88249 -104.55249 35076 ft 493 kts 82°
2026-05-07 13:44 34.89032 -104.46955 35168 ft 494 kts 82°
2026-05-07 13:44 34.89816 -104.38611 35213 ft 497 kts 82°
2026-05-07 13:45 34.90602 -104.30247 35227 ft 496 kts 82°
2026-05-07 13:45 34.91110 -104.21859 35259 ft 497 kts 86°
2026-05-07 13:46 34.91424 -104.13359 35244 ft 508 kts 85°
2026-05-07 13:46 34.91793 -104.04624 35256 ft 523 kts 87°
2026-05-07 13:47 34.92192 -103.95642 35254 ft 539 kts 89°
2026-05-07 13:47 34.92622 -103.86388 35262 ft 555 kts 88°
2026-05-07 13:48 34.93109 -103.76855 35262 ft 571 kts 89°
2026-05-07 13:48 34.93566 -103.67129 35260 ft 586 kts 89°
2026-05-07 13:49 34.94019 -103.57113 35264 ft 594 kts 89°
2026-05-07 13:49 34.94463 -103.47059 35266 ft 593 kts 89°
2026-05-07 13:50 34.94897 -103.37026 35265 ft 592 kts 89°
2026-05-07 13:50 34.95321 -103.27055 35271 ft 593 kts 89°
2026-05-07 13:51 34.95739 -103.17011 35270 ft 592 kts 89°
2026-05-07 13:51 34.96149 -103.06966 35280 ft 592 kts 89°
2026-05-07 13:52 34.96550 -102.96933 35280 ft 592 kts 89°
2026-05-07 13:52 34.96936 -102.87068 35275 ft 582 kts 89°
2026-05-07 13:53 34.97315 -102.77179 35285 ft 587 kts 89°
2026-05-07 13:53 34.97691 -102.67158 35285 ft 593 kts 89°
2026-05-07 13:54 34.98060 -102.57105 35288 ft 593 kts 89°
2026-05-07 13:54 34.98420 -102.47060 35283 ft 592 kts 90°
2026-05-07 13:55 34.98780 -102.37027 35284 ft 592 kts 89°
2026-05-07 13:55 34.99149 -102.26995 35282 ft 592 kts 90°
2026-05-07 13:56 34.99469 -102.16968 35280 ft 592 kts 90°
2026-05-07 13:56 34.99783 -102.06936 35278 ft 592 kts 90°
2026-05-07 13:57 35.00079 -101.96894 35271 ft 591 kts 91°
2026-05-07 13:57 35.00132 -101.86869 35268 ft 590 kts 92°
2026-05-07 13:58 35.00144 -101.76851 35265 ft 591 kts 92°
2026-05-07 13:58 35.00174 -101.66888 35264 ft 591 kts 92°
2026-05-07 13:59 35.00205 -101.56864 35261 ft 591 kts 92°
2026-05-07 13:59 35.00295 -101.46824 35261 ft 591 kts 92°
2026-05-07 14:00 35.00346 -101.36793 35256 ft 591 kts 92°
2026-05-07 14:00 35.00375 -101.26766 35255 ft 591 kts 92°
2026-05-07 14:01 35.00394 -101.16808 35251 ft 589 kts 92°
2026-05-07 14:01 35.00404 -101.06792 35250 ft 590 kts 92°
2026-05-07 14:02 35.00405 -100.96782 35249 ft 590 kts 92°
2026-05-07 14:02 35.00399 -100.86790 35247 ft 589 kts 92°
2026-05-07 14:03 35.00384 -100.76786 35248 ft 590 kts 93°
2026-05-07 14:03 35.00361 -100.66769 35245 ft 590 kts 93°
2026-05-07 14:04 35.00330 -100.56819 35241 ft 590 kts 93°
2026-05-07 14:04 35.00291 -100.46794 35244 ft 590 kts 93°
2026-05-07 14:05 35.00252 -100.36774 35241 ft 591 kts 92°
2026-05-07 14:05 35.00221 -100.26760 35239 ft 590 kts 93°
2026-05-07 14:06 35.00156 -100.18437 35237 ft 591 kts 93°
2026-05-07 14:06 35.00071 -100.08412 35233 ft 590 kts 93°
2026-05-07 14:07 35.00222 -99.98392 35225 ft 593 kts 86°
2026-05-07 14:07 35.01499 -99.88465 35223 ft 590 kts 79°
2026-05-07 14:08 35.03245 -99.78723 35220 ft 592 kts 78°
2026-05-07 14:08 35.04891 -99.68844 35217 ft 595 kts 79°
2026-05-07 14:09 35.06446 -99.58899 35219 ft 598 kts 79°
2026-05-07 14:09 35.07933 -99.49672 35222 ft 598 kts 79°
2026-05-07 14:10 35.09551 -99.39428 35222 ft 598 kts 79°
2026-05-07 14:10 35.11089 -99.29518 35230 ft 598 kts 79°
2026-05-07 14:11 35.12630 -99.19514 35228 ft 598 kts 79°
2026-05-07 14:11 35.14163 -99.09494 35230 ft 602 kts 79°
2026-05-07 14:12 35.15696 -98.99411 35230 ft 604 kts 79°
2026-05-07 14:12 35.17220 -98.89336 35228 ft 602 kts 79°
2026-05-07 14:13 35.18734 -98.79263 35230 ft 602 kts 79°
2026-05-07 14:13 35.20240 -98.69186 35230 ft 603 kts 80°
2026-05-07 14:14 35.21743 -98.59064 35228 ft 606 kts 80°
2026-05-07 14:14 35.23235 -98.48961 35230 ft 608 kts 80°
2026-05-07 14:15 35.24729 -98.38781 35226 ft 607 kts 80°
2026-05-07 14:15 35.26214 -98.28605 35230 ft 605 kts 80°
2026-05-07 14:16 35.27674 -98.18538 35228 ft 596 kts 79°
2026-05-07 14:16 35.29108 -98.08591 35230 ft 599 kts 80°
2026-05-07 14:17 35.30556 -97.98501 35230 ft 603 kts 79°
2026-05-07 14:17 35.32024 -97.88424 35231 ft 600 kts 80°
2026-05-07 14:18 35.33433 -97.78352 35230 ft 600 kts 80°
2026-05-07 14:18 35.34840 -97.68249 35230 ft 602 kts 80°
2026-05-07 14:19 35.35549 -97.58015 35233 ft 603 kts 94°
2026-05-07 14:19 35.34695 -97.47910 35224 ft 599 kts 102°
2026-05-07 14:20 35.33495 -97.37811 35206 ft 599 kts 102°
2026-05-07 14:20 35.32368 -97.27698 35201 ft 600 kts 102°
2026-05-07 14:21 35.31268 -97.17572 35201 ft 600 kts 101°
2026-05-07 14:21 35.30234 -97.07396 35200 ft 603 kts 101°
2026-05-07 14:22 35.29161 -96.97198 35203 ft 604 kts 102°
2026-05-07 14:22 35.28065 -96.87012 35206 ft 601 kts 101°
2026-05-07 14:23 35.26980 -96.77023 35205 ft 595 kts 102°
2026-05-07 14:23 35.25871 -96.66914 35210 ft 603 kts 102°
2026-05-07 14:24 35.24739 -96.56687 35210 ft 608 kts 102°
2026-05-07 14:24 35.23597 -96.46445 35219 ft 607 kts 103°
2026-05-07 14:25 35.22449 -96.36229 35217 ft 603 kts 103°
2026-05-07 14:25 35.21298 -96.26061 35212 ft 604 kts 103°
2026-05-07 14:26 35.20142 -96.15930 35207 ft 606 kts 103°
2026-05-07 14:26 35.18970 -96.05732 35207 ft 606 kts 103°
2026-05-07 14:27 35.17786 -95.95510 35207 ft 606 kts 103°
2026-05-07 14:27 35.16596 -95.85315 35203 ft 605 kts 103°
2026-05-07 14:28 35.15397 -95.75120 35215 ft 606 kts 103°
2026-05-07 14:28 35.14188 -95.64913 35218 ft 606 kts 103°
2026-05-07 14:29 35.12980 -95.54788 35224 ft 607 kts 103°
2026-05-07 14:29 35.11752 -95.44572 35223 ft 607 kts 103°
2026-05-07 14:30 35.10518 -95.34383 35219 ft 606 kts 104°
2026-05-07 14:30 35.09277 -95.24203 35219 ft 606 kts 104°
2026-05-07 14:31 35.08023 -95.13997 35216 ft 608 kts 104°
2026-05-07 14:31 35.06758 -95.03768 35205 ft 609 kts 104°
2026-05-07 14:32 35.05486 -94.93556 35209 ft 609 kts 104°
2026-05-07 14:32 35.04211 -94.83396 35203 ft 609 kts 104°
2026-05-07 14:33 35.02920 -94.73173 35203 ft 609 kts 104°
2026-05-07 14:33 35.01619 -94.62945 35202 ft 610 kts 104°
2026-05-07 14:34 35.00307 -94.52708 35201 ft 611 kts 104°
2026-05-07 14:34 34.98987 -94.42467 35200 ft 611 kts 104°
2026-05-07 14:35 34.97668 -94.32311 35198 ft 610 kts 104°
2026-05-07 14:35 34.96331 -94.22086 35197 ft 611 kts 104°
2026-05-07 14:36 34.94985 -94.11852 35192 ft 612 kts 105°
2026-05-07 14:36 34.93628 -94.01609 35192 ft 612 kts 105°
2026-05-07 14:37 34.92268 -93.91417 35183 ft 612 kts 105°
2026-05-07 14:37 34.90216 -93.76143 35179 ft 597 kts 104°
2026-05-07 14:38 34.88859 -93.66138 35174 ft 601 kts 105°
2026-05-07 14:38 34.87477 -93.56012 35175 ft 611 kts 105°
2026-05-07 14:39 34.86071 -93.45767 35172 ft 613 kts 105°
2026-05-07 14:39 34.84657 -93.35537 35172 ft 611 kts 105°
2026-05-07 14:40 34.83248 -93.25408 35171 ft 611 kts 105°
2026-05-07 14:40 34.81819 -93.15194 35171 ft 611 kts 105°
2026-05-07 14:41 34.80383 -93.04995 35171 ft 612 kts 105°
2026-05-07 14:41 34.78945 -92.94849 35171 ft 612 kts 105°
2026-05-07 14:42 34.77481 -92.84578 35171 ft 612 kts 105°
2026-05-07 14:42 34.76017 -92.74376 35171 ft 612 kts 105°
2026-05-07 14:43 34.74554 -92.64237 35170 ft 612 kts 105°
2026-05-07 14:43 34.73816 -92.59148 35008 ft 608 kts 105°
2026-05-07 14:43 34.73083 -92.54055 34347 ft 614 kts 105°
2026-05-07 14:44 34.72363 -92.48931 33673 ft 612 kts 105°
2026-05-07 14:44 34.71616 -92.43841 33001 ft 611 kts 105°
2026-05-07 14:44 34.70863 -92.38758 32326 ft 611 kts 106°
2026-05-07 14:44 34.70108 -92.33687 31649 ft 610 kts 106°
2026-05-07 14:45 34.69353 -92.28621 30975 ft 609 kts 106°
2026-05-07 14:45 34.68598 -92.23562 30302 ft 608 kts 105°
2026-05-07 14:45 34.67848 -92.18525 29627 ft 606 kts 105°
2026-05-07 14:45 34.67134 -92.13471 28950 ft 605 kts 104°
2026-05-07 14:46 34.66518 -92.08433 28275 ft 597 kts 103°
2026-05-07 14:46 34.65950 -92.03511 27602 ft 581 kts 103°
2026-05-07 14:46 34.65374 -91.98711 26929 ft 566 kts 103°
2026-05-07 14:46 34.64800 -91.94039 26253 ft 553 kts 103°
2026-05-07 14:47 34.64239 -91.89532 25588 ft 541 kts 103°
2026-05-07 14:47 34.63680 -91.85064 24916 ft 529 kts 103°
2026-05-07 14:47 34.63130 -91.80681 24241 ft 519 kts 103°
2026-05-07 14:47 34.62592 -91.76389 23566 ft 509 kts 103°
2026-05-07 14:48 34.62087 -91.72163 22892 ft 501 kts 103°
2026-05-07 14:48 34.61611 -91.68016 22221 ft 491 kts 103°
2026-05-07 14:48 34.61113 -91.63947 21546 ft 482 kts 104°
2026-05-07 14:48 34.60608 -91.59963 20872 ft 474 kts 104°
2026-05-07 14:49 34.60104 -91.56033 20204 ft 469 kts 104°
2026-05-07 14:49 34.59601 -91.52114 19662 ft 469 kts 104°
2026-05-07 14:49 34.59105 -91.48261 19216 ft 467 kts 104°
2026-05-07 14:49 34.58604 -91.44375 18767 ft 465 kts 104°
2026-05-07 14:50 34.58106 -91.40513 18319 ft 462 kts 104°
2026-05-07 14:50 34.57609 -91.36657 17868 ft 460 kts 103°
2026-05-07 14:50 34.57117 -91.32838 17452 ft 456 kts 103°
2026-05-07 14:50 34.56623 -91.29054 17081 ft 452 kts 103°
2026-05-07 14:51 34.56132 -91.25299 16707 ft 447 kts 102°
2026-05-07 14:51 34.55646 -91.21598 16337 ft 443 kts 102°
2026-05-07 14:51 34.55163 -91.17925 15962 ft 439 kts 102°
2026-05-07 14:51 34.54699 -91.14291 15589 ft 435 kts 101°
2026-05-07 14:52 34.54253 -91.10684 15218 ft 431 kts 101°
2026-05-07 14:52 34.53792 -91.07109 14845 ft 427 kts 101°
2026-05-07 14:52 34.53327 -91.03571 14459 ft 420 kts 102°
2026-05-07 14:52 34.52866 -91.00130 14096 ft 406 kts 97°
2026-05-07 14:53 34.52428 -90.96844 13751 ft 392 kts 99°
2026-05-07 14:53 34.51998 -90.93640 13433 ft 377 kts 100°
2026-05-07 14:53 34.51585 -90.90552 13110 ft 364 kts 100°
2026-05-07 14:53 34.51184 -90.87568 12780 ft 352 kts 100°
2026-05-07 14:54 34.50796 -90.84684 12449 ft 341 kts 99°
2026-05-07 14:54 34.50437 -90.81880 12150 ft 332 kts 96°
2026-05-07 14:54 34.50476 -90.79123 11895 ft 324 kts 77°
2026-05-07 14:54 34.51211 -90.76602 11663 ft 314 kts 59°
2026-05-07 14:55 34.52315 -90.74352 11428 ft 307 kts 52°
2026-05-07 14:55 34.53104 -90.72942 11263 ft 304 kts 49°
2026-05-07 14:55 34.54353 -90.70893 11011 ft 300 kts 47°
2026-05-07 14:55 34.56032 -90.68248 10680 ft 298 kts 47°
2026-05-07 14:56 34.57284 -90.66245 10430 ft 298 kts 47°
2026-05-07 14:56 34.58523 -90.64241 10205 ft 296 kts 47°
2026-05-07 14:56 34.59355 -90.62893 10087 ft 294 kts 48°
2026-05-07 14:56 34.60575 -90.60915 9910 ft 292 kts 47°
2026-05-07 14:57 34.61774 -90.58969 9727 ft 291 kts 48°
2026-05-07 14:57 34.62973 -90.57001 9526 ft 289 kts 50°
2026-05-07 14:57 34.63910 -90.54832 9331 ft 294 kts 66°
2026-05-07 14:57 34.64393 -90.52413 9143 ft 295 kts 77°
2026-05-07 14:58 34.64644 -90.49945 8946 ft 293 kts 82°
2026-05-07 14:58 34.64802 -90.47487 8744 ft 289 kts 84°
2026-05-07 14:58 34.64917 -90.45079 8573 ft 282 kts 84°
2026-05-07 14:58 34.65026 -90.42727 8369 ft 276 kts 84°
2026-05-07 14:59 34.65124 -90.40423 8154 ft 270 kts 84°
2026-05-07 14:59 34.65217 -90.38168 7951 ft 264 kts 84°
2026-05-07 14:59 34.65305 -90.35975 7745 ft 257 kts 84°
2026-05-07 14:59 34.65391 -90.33840 7613 ft 247 kts 84°
2026-05-07 15:00 34.65471 -90.31790 7441 ft 240 kts 84°
2026-05-07 15:00 34.65560 -90.29794 7240 ft 234 kts 83°
2026-05-07 15:00 34.65689 -90.27842 7038 ft 229 kts 82°
2026-05-07 15:00 34.65837 -90.25936 6833 ft 225 kts 81°
2026-05-07 15:01 34.66013 -90.24059 6630 ft 223 kts 80°
2026-05-07 15:01 34.66193 -90.22210 6432 ft 223 kts 80°
2026-05-07 15:01 34.66384 -90.20341 6236 ft 223 kts 80°
2026-05-07 15:01 34.66575 -90.18478 6037 ft 221 kts 80°
2026-05-07 15:02 34.66769 -90.16632 5841 ft 219 kts 80°
2026-05-07 15:02 34.66967 -90.14807 5639 ft 216 kts 80°
2026-05-07 15:02 34.67167 -90.13003 5437 ft 214 kts 80°
2026-05-07 15:02 34.67365 -90.11215 5240 ft 213 kts 80°
2026-05-07 15:03 34.67569 -90.09442 5066 ft 211 kts 80°
2026-05-07 15:03 34.67773 -90.07687 5000 ft 210 kts 80°
2026-05-07 15:03 34.67978 -90.05933 4996 ft 210 kts 80°
2026-05-07 15:03 34.68181 -90.04172 5004 ft 211 kts 80°
2026-05-07 15:04 34.68385 -90.02412 5002 ft 211 kts 80°
2026-05-07 15:04 34.68614 -90.00655 5001 ft 210 kts 75°
2026-05-07 15:04 34.69243 -89.99100 4990 ft 205 kts 45°
2026-05-07 15:04 34.70458 -89.98306 5003 ft 200 kts 12°
2026-05-07 15:05 34.71844 -89.98199 5013 ft 200 kts
2026-05-07 15:05 34.73221 -89.98141 4997 ft 201 kts 359°
2026-05-07 15:05 34.74612 -89.98131 5008 ft 199 kts 358°
2026-05-07 15:05 34.76017 -89.98144 5004 ft 199 kts 358°
2026-05-07 15:06 34.77398 -89.98164 5004 ft 198 kts 358°
2026-05-07 15:06 34.78782 -89.98188 4917 ft 201 kts 358°
2026-05-07 15:06 34.80167 -89.98216 4643 ft 201 kts 358°
2026-05-07 15:06 34.81551 -89.98244 4378 ft 196 kts 359°
2026-05-07 15:07 34.82881 -89.98272 4131 ft 185 kts 359°
2026-05-07 15:07 34.84130 -89.98298 3883 ft 175 kts 359°
2026-05-07 15:07 34.85311 -89.98323 3640 ft 164 kts 359°
2026-05-07 15:07 34.86423 -89.98347 3439 ft 156 kts
2026-05-07 15:08 34.87489 -89.98370 3232 ft 150 kts
2026-05-07 15:08 34.88492 -89.98391 3063 ft 141 kts
2026-05-07 15:08 34.89474 -89.98412 2872 ft 143 kts
2026-05-07 15:08 34.90454 -89.98433 2674 ft 140 kts
2026-05-07 15:09 34.91426 -89.98454 2487 ft 139 kts
2026-05-07 15:09 34.92393 -89.98475 2290 ft 140 kts
2026-05-07 15:09 34.93365 -89.98495 2123 ft 139 kts
2026-05-07 15:09 34.94332 -89.98516 1929 ft 138 kts
2026-05-07 15:10 34.95296 -89.98537 1738 ft 139 kts
2026-05-07 15:10 34.96269 -89.98558 1559 ft 140 kts
2026-05-07 15:10 34.97245 -89.98579 1375 ft 140 kts
2026-05-07 15:10 34.98212 -89.98599 1176 ft 139 kts
2026-05-07 15:11 34.99183 -89.98620 999 ft 140 kts
2026-05-07 15:11 35.00164 -89.98641 816 ft 141 kts 359°
2026-05-07 15:11 35.01138 -89.98662 630 ft 142 kts 359°
2026-05-07 15:11 35.02137 -89.98684 439 ft 142 kts 359°
2026-05-07 15:12 35.03102 -89.98705 356 ft 125 kts 359°
2026-05-07 15:12 35.03741 -89.98719 355 ft 59 kts 359°
2026-05-07 15:12 35.04059 -89.98726 355 ft 42 kts 359°
2026-05-07 15:12 35.04315 -89.98731 355 ft 32 kts 359°
2026-05-07 15:13 35.04508 -89.98710 355 ft 24 kts 18°
2026-05-07 15:13 35.04634 -89.98632 355 ft 17 kts 34°
2026-05-07 15:13 35.04717 -89.98604 355 ft 9 kts 358°
2026-05-07 15:13 35.04794 -89.98607 355 ft 14 kts 358°
2026-05-07 15:14 35.04907 -89.98610 355 ft 19 kts
2026-05-07 15:14 35.05044 -89.98558 355 ft 21 kts 27°
2026-05-07 15:14 35.05163 -89.98518 355 ft 16 kts
2026-05-07 15:14 35.05291 -89.98512 355 ft 21 kts
2026-05-07 15:15 35.05445 -89.98509 355 ft 22 kts
2026-05-07 15:15 35.05605 -89.98508 355 ft 24 kts
2026-05-07 15:15 35.05761 -89.98507 355 ft 18 kts
2026-05-07 15:15 35.05880 -89.98506 355 ft 18 kts 359°
2026-05-07 15:16 35.05992 -89.98511 355 ft 12 kts 21°
2026-05-07 15:16 35.06022 -89.98412 355 ft 15 kts 90°
2026-05-07 15:16 35.06019 -89.98288 355 ft 15 kts 92°
2026-05-07 15:16 35.06016 -89.98160 355 ft 18 kts 92°
2026-05-07 15:17 35.06011 -89.97987 355 ft 21 kts 92°
2026-05-07 15:17 35.06006 -89.97832 355 ft 16 kts 92°
2026-05-07 15:17 35.05983 -89.97676 355 ft 20 kts 104°
2026-05-07 15:17 35.05951 -89.97529 355 ft 16 kts 105°
2026-05-07 15:18 35.05939 -89.97400 355 ft 16 kts 93°
2026-05-07 15:18 35.05936 -89.97285 355 ft 8 kts 91°
2026-05-07 15:18 35.05935 -89.97227 355 ft 5 kts 92°
2026-05-07 15:18 35.05933 -89.97180 355 ft 4 kts 92°
2026-05-07 15:19 35.05932 -89.97140 355 ft 6 kts 89°
2026-05-07 15:19 35.05961 -89.97113 355 ft 6 kts 360°
2026-05-07 15:19 35.05992 -89.97112 355 ft 3 kts
2026-05-07 15:19 35.06011 -89.97112 355 ft 0 kts
2026-05-07 15:20 35.06012 -89.97112 355 ft 0 kts